Location: Unspecified
(0.0000°N, 0.0000°E)
Time: 11:12:53
(UTC+00:00)

ISS - Visible Passes

Search period start: 10 December 2019 00:00
Search period end: 20 December 2019 00:00
Orbit: 411 x 421 km, 51.6° (Epoch: 10 December)

Date Brightness Start Highest point End Pass type
(mag) Time Alt. Az. Time Alt. Az. Time Alt. Az.
12 Dec -1.4 19:10:18 10° NNW 19:10:47 13° N 19:10:47 13° N visible
13 Dec -2.0 18:22:52 10° NNE 18:24:55 15° NE 18:26:59 10° E visible
13 Dec -0.8 19:59:12 10° W 20:01:27 17° SW 20:02:09 16° SW visible
14 Dec -2.2 19:09:50 10° NW 19:12:59 38° SW 19:16:09 10° SSE visible
15 Dec -3.8 18:21:10 10° NNW 18:24:30 79° NE 18:27:52 10° SE visible
17 Dec -0.6 05:09:20 10° S 05:11:51 20° SE 05:14:21 10° ENE visible
17 Dec -0.5 18:21:35 10° WNW 18:24:02 19° SW 18:26:31 10° S visible
19 Dec -3.9 05:08:03 10° SW 05:11:21 73° NW 05:14:38 10° NNE visible
